Wind_Speed
27 27 28 29 29 29 28 28 27 27 26 26 26 26 25 24 24 24 24 24 24 24 24 24 24 24 25 26 26 26 26 25 25 25 26 27 28 30 31 32 33 33 33 33 33 33 33 33 34 35 36 36 37 38 39 40 42 43 45 47 48 50 52 54 59 64 66 65 67 69 70 71 72 73 74 76 76 76 77 78 78 79 80 80 80
26 26 27 27 27 26 26 26 26 26 26 26 26 26 25 25 24 24 24 24 24 24 24 24 24 25 25 25 25 26 26 26 26 27 27 28 29 30 32 33 33 33 33 33 34 34 34 35 36 37 38 39 40 41 42 44 46 47 48 50 52 52 54 56 59 64 68 69 69 71 72 74 75 75 76 77 78 78 79 79 80 80 81 81 82
25 25 25 25 25 25 25 25 26 26 26 27 27 26 26 25 25 25 25 25 25 25 25 25 25 24 25 26 26 26 26 26 27 27 28 29 30 31 31 33 34 34 34 35 35 35 36 37 38 39 41 42 43 44 46 48 49 51 52 53 54 54 55 56 59 63 68 71 72 73 74 75 76 76 76 78 78 79 80 80 81 81 82 83 83
22 22 22 23 23 24 25 25 26 27 27 28 27 27 26 26 26 26 26 26 26 25 25 25 25 26 26 27 27 26 26 26 27 27 28 29 29 30 31 33 35 36 37 37 37 38 39 40 41 42 44 45 46 47 49 50 52 53 54 54 55 56 56 58 60 63 67 72 73 74 75 76 77 77 78 79 80 80 81 82 83 83 83 84 85
19 20 21 22 23 24 25 26 27 28 28 28 28 27 27 27 27 28 27 27 27 26 26 26 26 27 27 27 27 27 27 27 28 28 28 28 29 30 31 34 36 38 39 40 40 41 42 43 44 45 47 48 49 50 52 53 54 54 55 56 57 58 59 60 62 64 67 71 74 74 75 77 78 79 80 81 82 83 83 83 84 85 85 85 86
19 21 22 23 25 25 27 28 28 28 28 29 29 29 29 29 29 29 29 29 28 27 27 27 27 27 27 27 28 28 28 28 29 29 29 30 30 31 32 34 37 39 40 41 42 42 43 45 46 47 49 51 52 53 54 55 56 56 57 58 59 61 62 64 65 68 70 73 75 77 77 78 80 81 81 82 84 85 85 85 85 85 86 86 87
21 22 24 25 26 27 28 29 29 29 30 30 30 30 30 30 30 30 30 29 28 28 28 28 28 28 28 29 29 29 30 30 30 30 30 31 32 32 33 35 36 38 40 41 42 43 45 46 48 49 51 53 54 55 56 57 58 58 59 60 62 63 65 67 69 71 73 75 77 78 79 80 81 82 82 82 83 83 83 83 85 85 85 85 86
23 24 25 27 28 29 30 30 31 31 31 31 31 31 31 31 31 31 31 30 29 29 29 28 28 29 29 30 31 31 31 31 31 31 32 32 33 34 34 35 36 38 40 42 43 45 47 48 50 51 52 54 55 55 57 57 58 59 60 62 64 66 68 70 72 73 75 77 78 79 80 81 81 82 81 81 81 81 79 79 81 82 82 82 83
25 26 27 29 30 31 32 32 32 32 32 32 32 32 32 32 32 32 32 32 31 31 30 30 30 30 31 32 32 32 32 32 32 32 33 33 34 35 35 36 38 40 42 44 45 47 49 50 51 52 53 53 54 54 55 56 58 60 61 64 66 68 70 71 73 75 76 77 79 80 81 81 81 80 80 79 78 78 77 76 76 77 77 78 79
28 29 30 31 32 33 33 33 34 33 33 33 33 33 33 33 33 33 34 34 33 32 31 31 31 32 32 33 33 33 33 33 33 33 33 34 35 36 37 38 40 42 44 46 48 49 50 51 52 52 52 52 52 53 54 55 57 60 62 65 67 69 71 73 74 76 77 78 79 79 80 80 79 77 77 75 73 72 73 73 73 73 74 76 77
31 32 33 34 34 34 35 35 35 34 34 34 35 35 35 35 35 35 35 34 33 32 32 32 33 33 34 34 34 34 33 33 33 33 34 35 36 37 38 40 42 45 47 48 49 50 51 51 51 51 51 51 51 53 54 57 59 62 64 66 68 71 73 74 76 76 77 78 78 77 76 75 74 72 71 69 68 68 68 68 70 71 72 74 77
34 35 35 35 36 36 36 36 36 36 36 36 37 37 37 37 37 37 36 35 33 33 32 33 33 34 34 34 34 34 33 33 33 34 35 36 37 38 40 43 45 47 48 49 50 51 51 50 50 49 50 51 52 54 56 59 62 64 66 68 70 72 73 74 75 75 75 75 74 73 71 69 68 67 65 64 64 64 64 65 66 69 70 72 75
36 37 37 37 37 38 38 38 38 38 38 38 38 39 39 39 39 38 37 35 34 34 34 34 34 35 35 35 34 34 33 33 34 35 36 37 38 40 42 44 46 47 48 49 49 49 49 49 49 49 49 51 53 56 59 62 64 66 67 69 71 72 73 72 71 71 70 68 68 68 65 63 64 63 60 59 61 62 64 65 65 67 69 69 70
37 39 39 39 39 40 39 40 39 39 40 40 40 40 40 40 39 38 37 36 35 35 35 35 35 35 35 35 34 34 34 34 35 35 36 37 39 41 43 44 45 46 47 48 48 48 48 47 48 49 50 53 55 58 61 64 66 67 69 70 72 73 72 70 68 67 65 63 63 63 61 60 60 59 57 57 61 64 67 67 67 67 67 66 67
39 41 41 41 41 41 41 41 41 41 41 41 41 41 41 40 40 39 38 37 37 37 36 36 36 36 36 35 35 34 34 35 35 36 36 38 40 42 43 44 45 45 46 46 46 46 46 46 47 49 52 55 58 60 63 65 66 68 70 71 72 73 71 68 66 65 62 60 60 59 58 57 57 58 58 60 63 66 67 67 67 65 62 63 63
39 42 43 43 43 43 43 42 42 42 42 42 42 42 41 41 40 40 39 39 39 38 37 36 36 36 36 35 35 35 35 35 35 36 37 40 41 42 43 44 45 45 45 45 44 44 45 46 48 50 53 56 59 61 63 65 67 69 70 71 72 72 71 67 65 62 60 58 57 56 56 56 57 59 61 62 65 66 66 67 66 61 58 59 61
39 42 44 44 44 44 44 44 43 43 42 42 42 42 42 42 41 41 41 41 40 39 37 37 37 36 36 36 35 35 35 35 36 37 39 41 42 42 43 44 44 44 44 44 44 44 45 47 49 51 54 57 60 61 63 66 68 70 72 73 73 72 70 67 64 61 58 56 55 55 56 57 58 60 61 62 64 65 65 66 65 60 56 57 58
39 42 44 45 45 45 45 45 44 44 43 42 42 42 43 43 43 42 42 41 40 38 38 38 37 37 37 36 35 35 35 35 36 38 40 41 42 43 44 44 43 44 44 44 44 45 46 48 50 52 55 57 59 61 64 67 70 72 73 74 73 72 69 67 64 61 58 56 55 55 56 58 60 61 61 62 63 63 64 64 63 59 55 53 54
39 41 43 45 46 47 46 46 46 45 44 43 43 43 43 44 44 43 43 41 40 39 39 38 37 37 37 36 35 34 35 36 37 39 40 41 42 43 44 44 44 44 44 44 45 46 47 48 50 53 54 56 58 61 64 68 71 72 73 73 72 70 67 65 63 61 59 58 56 55 56 58 60 61 61 61 62 62 62 62 60 56 53 51 51
39 41 44 45 47 47 47 47 47 46 45 45 44 43 43 44 44 44 43 41 40 40 39 38 38 38 37 35 35 35 36 37 38 39 40 41 43 43 44 44 44 44 44 45 46 46 47 49 51 53 54 56 58 61 64 68 71 72 72 70 69 67 64 62 59 58 58 58 57 57 58 59 60 60 60 59 59 60 60 60 58 54 51 50 49
39 41 44 45 46 47 47 47 47 47 46 46 45 44 44 44 45 44 42 41 40 39 38 38 39 39 36 35 35 35 36 37 38 39 40 42 43 44 44 43 43 44 45 45 46 47 49 50 52 53 54 57 59 62 64 67 70 71 70 67 64 61 59 57 56 55 56 57 57 58 59 59 59 58 57 57 58 59 60 59 57 54 50 47 46
37 39 42 43 45 46 47 47 48 47 47 47 46 45 45 45 44 43 42 41 39 38 39 39 39 36 34 34 35 35 36 37 38 39 41 43 43 43 42 42 42 44 45 46 47 48 50 51 52 53 55 57 59 62 64 67 69 69 68 64 60 56 54 54 54 55 56 57 58 58 57 57 57 57 57 58 59 60 60 58 55 53 50 46 43
35 37 39 41 44 46 47 47 48 48 48 47 46 45 44 44 44 43 42 40 39 39 40 39 36 34 33 34 34 35 36 37 39 41 42 42 42 41 40 40 41 43 45 46 48 49 51 52 53 54 56 57 60 62 64 66 68 68 66 61 56 53 51 52 53 54 55 56 56 55 55 56 57 58 59 60 61 61 59 57 53 50 48 46 43
35 36 38 40 43 45 47 47 48 48 47 46 45 44 44 44 44 42 41 40 41 41 39 36 34 33 33 33 34 35 37 39 40 41 42 41 40 39 39 40 41 43 45 46 48 50 51 51 53 54 56 58 60 62 64 66 66 65 61 57 52 49 49 50 52 54 54 54 54 53 54 55 57 58 59 59 59 58 57 56 52 48 46 44 42
36 37 38 40 43 45 46 47 47 47 46 45 45 44 44 44 43 43 42 42 42 40 36 33 32 32 32 33 34 36 38 40 41 41 40 40 39 39 39 40 41 43 45 47 48 49 50 51 52 54 56 58 59 61 63 64 64 61 57 53 49 48 49 50 52 53 53 52 52 52 53 55 56 56 56 55 55 55 55 55 53 50 46 43 40
36 37 39 41 42 44 46 46 46 46 45 45 45 44 45 45 44 44 43 42 40 36 32 31 31 32 32 34 35 37 38 39 40 40 40 39 38 38 39 40 41 43 45 47 48 48 49 51 52 54 56 57 59 61 62 63 61 58 54 50 48 47 48 50 51 52 51 51 51 52 53 54 55 55 54 53 52 51 51 52 51 49 47 45 42
39 40 40 41 43 44 45 45 45 45 44 45 45 45 46 46 45 44 42 39 36 32 31 31 31 32 34 35 36 38 38 39 40 40 40 39 38 38 39 40 42 43 45 46 46 48 49 51 52 54 55 57 59 61 61 61 59 56 52 49 47 46 48 49 50 50 49 49 50 51 52 53 54 54 53 51 51 50 48 48 47 46 44 44 42
41 41 41 42 42 43 43 44 44 44 44 45 45 46 47 45 43 41 38 36 33 31 31 31 32 34 35 37 38 38 39 40 40 41 40 40 39 39 40 41 42 43 44 45 47 48 49 51 52 53 54 56 58 59 60 59 57 54 50 47 46 45 46 48 48 48 48 49 49 51 52 52 53 52 50 49 50 50 49 47 45 43 42 41 40
39 40 41 42 42 42 42 43 43 43 45 46 47 46 45 43 40 38 36 33 32 31 32 33 34 36 37 38 39 39 39 40 41 41 41 40 40 40 40 41 42 43 45 46 47 48 50 51 52 53 54 56 57 58 59 58 55 52 49 47 45 45 45 46 47 48 48 48 49 50 51 52 51 49 48 48 50 52 53 50 46 43 42 41 39
37 38 40 40 40 41 41 42 43 45 46 46 45 44 42 40 38 36 34 32 32 32 34 35 36 38 38 39 40 40 40 41 41 42 42 41 40 40 40 41 42 43 45 46 47 49 50 51 52 53 54 56 57 58 58 57 55 52 49 46 45 44 44 45 47 47 47 47 48 50 50 50 50 47 46 47 50 54 56 55 50 45 43 42 40
35 36 37 37 39 40 41 42 43 44 44 43 42 41 40 38 36 34 33 33 33 34 36 37 38 39 40 40 40 40 41 42 42 42 42 41 40 40 40 41 42 43 45 46 48 49 51 51 52 53 54 55 56 57 57 56 54 51 48 45 44 43 43 44 45 47 47 46 47 48 48 48 48 45 45 48 51 55 57 57 53 47 43 42 41
33 33 33 35 37 38 40 41 41 40 40 40 40 39 38 36 35 35 34 34 34 35 38 39 40 40 40 40 40 40 41 42 42 42 41 40 40 40 41 42 43 43 45 46 48 50 51 51 52 53 53 54 55 55 55 54 52 50 47 45 43 42 42 43 44 45 46 46 45 45 45 46 45 43 43 46 50 54 57 57 54 49 44 41 39
28 29 30 33 35 37 39 40 40 39 40 39 39 38 37 36 36 36 35 35 36 39 40 40 40 40 40 40 40 40 41 41 41 41 41 40 40 41 41 42 42 43 45 46 48 50 50 51 52 52 52 53 54 53 53 52 50 48 46 43 42 41 40 41 43 44 44 44 43 43 42 42 42 41 41 44 48 51 54 55 53 50 46 41 38
29 30 32 34 37 39 40 40 39 39 39 39 38 38 37 37 37 36 37 39 41 41 40 39 39 40 40 40 40 40 41 41 41 41 41 41 40 41 41 42 42 43 45 46 48 49 50 51 51 51 51 52 52 51 50 49 48 46 44 42 41 39 39 40 41 42 42 41 41 41 40 40 40 39 39 42 46 48 50 52 52 50 47 43 37
32 33 34 36 38 39 40 39 39 39 39 38 38 38 38 39 38 38 40 42 42 40 38 38 39 40 40 40 40 41 41 41 41 41 41 41 40 41 41 42 42 43 45 46 47 48 49 50 50 50 50 51 50 50 48 47 46 44 43 41 39 38 38 39 39 40 40 39 39 39 38 38 38 38 39 41 43 45 47 48 49 48 48 45 39
33 34 35 36 37 38 39 39 39 39 38 39 39 40 41 41 40 41 43 44 42 39 38 38 39 39 39 40 40 41 41 41 41 41 41 41 40 40 40 41 42 43 44 45 46 48 49 49 49 49 49 49 49 48 46 45 44 43 41 40 39 38 38 38 38 38 38 37 37 37 37 36 36 37 38 39 41 42 42 44 45 45 46 45 41
33 34 35 36 37 38 39 39 40 40 41 42 43 43 43 41 41 44 46 45 41 39 38 38 39 39 39 40 40 41 41 41 41 41 40 40 40 40 40 40 41 42 43 44 45 47 48 48 48 48 48 47 47 46 45 43 42 42 40 39 38 37 37 37 37 37 36 35 35 35 34 34 34 36 37 37 38 38 38 38 40 41 42 42 41
33 34 35 36 38 39 40 41 43 44 44 45 46 45 44 43 44 46 46 44 41 39 38 38 38 38 39 40 41 41 41 41 41 40 40 40 39 39 40 40 41 42 43 44 45 46 47 47 47 47 46 46 45 44 43 42 42 41 40 38 37 37 37 37 36 35 34 33 32 32 32 32 32 33 34 35 35 35 35 35 36 37 37 37 38
34 34 35 37 39 41 43 45 46 47 47 47 47 46 45 45 46 46 45 42 40 38 37 37 37 38 40 40 41 41 40 40 40 39 39 39 39 39 40 40 41 42 42 43 44 45 45 46 46 45 45 44 43 43 42 42 41 40 40 38 37 36 36 36 35 34 32 32 31 31 31 30 30 31 32 32 33 33 33 32 32 33 33 33 33
35 35 37 39 41 43 45 47 49 49 49 49 48 48 47 47 46 46 45 42 38 36 36 36 38 39 40 40 40 40 39 39 39 38 38 38 38 39 40 40 41 41 42 43 43 44 45 45 45 45 44 44 43 43 42 42 41 40 39 38 37 36 36 36 35 33 32 31 30 30 29 29 29 29 29 30 30 31 31 31 30 30 30 29 28
37 38 39 41 42 45 47 49 50 51 50 50 50 50 49 49 48 48 45 41 37 36 37 38 39 40 40 40 40 39 38 38 38 38 38 38 38 39 40 40 41 41 41 42 43 44 44 45 45 45 44 44 43 43 43 42 41 40 39 38 36 35 35 35 35 33 31 30 30 29 28 28 28 28 28 28 28 29 29 29 29 29 27 26 24
40 40 41 42 44 46 48 50 52 52 52 52 52 51 51 51 51 51 48 42 37 38 40 40 39 40 41 41 40 38 37 37 38 38 38 38 39 39 40 40 40 40 40 41 43 44 44 45 45 45 45 44 44 43 43 42 42 41 39 38 36 35 34 34 34 32 31 29 29 28 27 27 26 26 26 26 26 26 27 27 27 27 26 24 21
43 43 43 43 45 47 49 52 54 54 53 53 53 53 54 53 53 53 50 44 39 39 41 41 41 41 42 42 40 38 37 38 38 38 39 39 39 39 40 39 39 40 40 41 42 43 44 45 45 44 44 44 44 44 43 43 42 41 40 38 37 35 34 33 33 32 30 28 27 27 26 26 25 25 24 24 24 24 24 24 25 25 25 23 19
47 46 46 46 47 48 51 54 55 55 55 55 56 56 56 56 55 55 52 46 41 40 41 41 41 42 43 42 40 38 38 38 39 39 39 39 39 39 39 39 39 39 40 41 42 43 44 44 44 44 44 43 43 43 43 43 43 42 41 39 37 35 34 33 32 32 31 29 27 26 25 25 25 24 23 22 22 22 23 22 23 23 23 21 19
51 51 50 49 49 50 52 54 56 57 57 57 57 57 57 57 56 55 52 47 43 41 40 41 42 43 43 42 40 39 39 39 39 39 39 39 39 39 39 38 39 39 40 41 42 43 44 44 43 43 43 42 42 43 43 43 43 42 41 40 38 36 34 32 31 31 31 29 27 26 25 24 24 24 23 22 21 21 21 21 21 21 21 20 18
55 54 53 52 52 52 54 56 57 58 58 58 58 58 58 57 56 54 52 49 45 42 41 42 44 44 43 41 40 39 39 39 40 40 39 39 39 39 38 38 38 39 40 41 42 43 43 43 43 43 42 42 42 42 42 42 42 42 40 39 37 36 34 33 31 30 30 29 28 26 25 24 24 24 23 22 21 21 20 19 19 19 18 18 17
55 55 55 55 54 54 55 57 59 59 59 59 59 59 58 57 56 55 53 50 46 43 42 43 44 44 43 42 41 40 40 40 40 40 39 39 39 39 38 38 38 39 40 41 42 42 43 43 43 42 42 41 41 41 42 42 42 41 39 38 36 35 33 32 31 30 29 28 28 27 26 25 24 23 23 22 21 20 19 18 17 17 16 16 15
52 53 54 55 55 55 56 58 60 60 60 60 59 59 59 58 57 56 55 52 47 44 43 44 44 44 43 42 41 41 40 41 40 39 39 39 39 38 38 38 38 39 40 41 42 42 43 43 43 42 42 41 41 41 41 41 40 39 38 37 35 34 32 32 31 30 29 28 27 26 25 25 24 24 23 22 21 20 19 18 17 16 15 15 14
51 52 53 54 54 55 56 58 59 60 59 59 59 60 60 59 57 56 55 51 47 44 44 44 44 44 43 42 42 41 41 41 40 39 39 39 39 38 38 38 38 40 40 41 42 42 42 43 42 42 41 41 41 40 40 40 39 38 37 36 34 32 31 30 31 30 29 28 27 25 25 24 24 23 23 22 21 20 19 18 17 16 15 15 14
51 51 52 52 53 54 56 57 59 59 59 60 61 61 60 59 57 56 53 50 46 45 45 45 45 44 43 42 42 42 42 41 40 40 40 40 39 38 38 38 39 40 40 41 41 42 42 42 42 41 41 40 40 39 39 38 37 36 35 35 34 32 30 29 30 30 30 29 27 26 24 23 23 23 23 22 21 20 19 19 18 17 16 15 14
50 50 51 51 53 54 55 57 58 60 60 60 61 62 61 59 56 54 51 48 46 46 46 45 44 43 43 42 43 42 41 40 40 40 40 40 39 38 38 39 39 39 40 40 41 41 41 41 41 41 41 40 39 38 37 36 34 34 33 33 33 32 30 29 28 29 30 29 28 27 26 24 23 22 22 22 22 21 20 19 19 18 17 16 15
Wind_Direction
245 241 238 236 236 236 234 232 229 225 222 219 218 219 222 228 234 242 249 256 263 269 274 279 284 289 293 297 300 302 305 310 315 319 322 323 324 325 324 323 320 317 314 312 310 309 308 308 309 309 309 309 308 307 306 306 305 305 305 305 305 305 304 303 303 304 307 307 307 307 307 307 307 307 307 306 305 305 304 304 303 303 303 302 301
240 239 236 235 233 232 229 225 222 219 217 218 219 223 229 236 242 249 256 262 267 272 276 281 286 291 295 299 301 305 309 314 318 321 322 323 323 323 322 320 317 314 311 310 309 309 310 310 310 310 310 310 310 310 309 309 308 308 308 308 308 307 306 306 305 306 307 307 307 307 307 307 307 306 306 306 305 304 304 303 302 302 302 301 300
237 237 236 234 231 228 225 221 219 218 218 221 225 230 236 243 249 255 260 265 269 274 279 284 288 292 296 299 303 307 312 315 318 319 320 321 321 320 318 316 314 311 309 309 309 309 310 310 310 311 311 312 312 312 311 311 310 310 309 309 308 308 308 308 308 308 308 307 307 307 307 306 306 307 306 306 305 305 303 302 302 302 301 300 300
238 237 235 232 228 226 223 221 220 221 223 227 232 237 243 248 254 259 263 267 272 277 281 285 289 293 296 300 304 308 311 313 315 316 316 316 315 314 313 313 311 309 308 308 309 309 310 311 311 312 312 312 312 311 311 310 310 309 309 309 309 309 309 310 310 310 309 308 307 307 307 307 307 307 307 306 306 305 304 303 302 301 300 299 299
237 236 234 231 228 226 224 223 224 227 230 234 239 244 249 254 258 262 266 270 275 279 283 286 290 293 297 301 304 307 309 311 312 312 312 310 309 309 309 310 309 308 308 308 308 309 310 311 312 312 312 312 311 311 311 310 310 310 310 310 310 310 311 312 312 312 311 310 309 308 308 308 307 308 308 307 306 305 303 303 302 301 300 298 297
238 237 235 232 230 228 228 228 230 234 238 241 245 250 254 258 261 264 268 271 276 279 283 287 291 294 298 301 304 305 307 308 309 309 308 307 306 306 306 307 308 307 307 307 308 309 310 311 311 311 312 311 311 311 311 311 311 311 312 312 312 313 313 313 313 313 313 312 312 311 310 309 308 308 308 307 306 304 303 302 301 300 299 298 297
240 238 237 235 233 233 233 235 238 241 244 247 250 254 258 261 263 266 269 272 276 279 284 288 291 295 298 300 302 303 304 305 305 305 305 305 305 305 305 306 306 306 306 307 308 309 310 310 311 311 312 312 312 312 312 312 312 313 314 314 314 314 315 315 315 315 314 313 313 312 311 311 310 309 309 307 305 304 304 304 302 300 299 298 298
240 240 240 239 238 238 239 241 243 245 248 251 254 257 260 263 266 269 272 274 277 280 284 288 291 294 297 298 300 301 302 302 302 302 303 304 304 303 303 303 304 305 307 308 309 309 309 310 310 311 311 312 312 312 313 313 314 315 316 316 316 317 317 317 316 316 315 314 313 312 311 311 311 310 309 307 306 305 305 305 304 303 302 300 299
242 243 244 243 243 243 243 245 247 250 252 255 257 259 262 265 269 271 274 275 277 280 283 286 290 293 295 297 298 298 298 299 300 301 302 302 301 300 300 302 303 305 307 308 308 308 309 310 310 311 311 312 313 313 314 315 316 317 317 318 319 318 318 318 317 316 315 314 313 313 312 312 312 311 309 309 309 308 308 308 307 307 307 305 302
245 245 246 245 245 246 247 249 251 253 255 257 259 262 265 268 270 271 273 275 277 279 282 286 289 292 294 295 295 295 296 297 299 300 299 298 298 298 299 301 304 305 306 307 307 308 309 310 311 312 312 313 314 315 316 317 318 319 319 320 320 320 319 319 318 317 316 315 315 314 314 313 313 312 312 312 312 311 310 310 310 310 309 307 305
247 246 246 247 247 249 250 252 254 256 258 260 263 265 267 269 270 271 273 275 277 279 282 285 288 291 292 293 293 294 295 297 298 298 297 296 297 298 299 302 305 306 306 307 308 310 311 312 312 313 314 314 315 316 318 319 320 320 321 322 322 322 321 320 319 318 317 316 316 316 315 314 314 314 314 314 313 312 312 312 311 311 309 307 306
249 248 248 249 250 251 252 254 256 258 260 263 265 267 268 270 271 273 274 275 277 279 282 285 287 289 291 291 292 293 294 295 295 295 295 296 296 298 300 304 306 306 307 309 311 312 313 313 314 314 315 316 317 318 319 320 321 322 323 324 324 323 322 321 320 319 317 317 316 316 316 315 315 315 315 315 314 314 314 314 313 311 310 308 307
252 251 251 251 252 253 254 256 257 260 262 264 266 267 269 270 272 273 274 275 277 279 281 284 286 288 290 290 291 292 293 293 293 293 294 294 296 299 302 305 306 308 310 312 313 314 314 314 314 315 316 317 318 320 321 322 323 324 325 325 324 324 323 321 320 319 318 318 317 317 317 316 315 316 317 317 316 316 316 316 315 314 313 312 310
254 253 253 253 254 255 256 258 259 261 263 265 267 268 270 271 272 273 274 275 277 279 281 283 285 287 289 289 290 290 291 291 291 292 292 294 297 302 305 306 308 310 312 313 314 313 313 314 315 316 318 319 320 321 323 324 325 325 326 326 325 325 323 322 320 319 318 318 318 317 318 318 317 317 317 317 318 318 319 318 317 317 316 314 314
255 254 254 254 255 256 258 259 261 262 264 266 268 269 270 272 272 273 274 275 277 279 280 282 284 286 287 288 288 288 288 289 290 290 292 295 301 304 307 309 311 313 313 313 313 313 313 314 315 317 319 321 323 324 325 325 326 326 326 326 326 325 323 321 320 319 320 320 319 319 318 318 318 318 319 319 319 319 318 317 317 317 314 313 313
255 255 255 255 256 257 258 260 261 263 265 267 269 270 271 272 272 273 274 275 277 278 279 281 283 284 285 286 286 286 286 288 289 290 294 299 304 307 309 311 312 312 312 311 311 312 313 315 317 319 321 323 325 326 326 326 327 327 327 326 326 325 323 321 320 320 321 320 319 318 318 319 320 320 320 319 318 318 317 316 317 316 312 310 310
256 255 255 255 256 257 258 260 261 263 266 268 270 271 272 273 273 273 274 275 276 277 279 280 282 283 284 284 284 284 286 287 289 292 298 303 306 309 311 312 312 311 310 310 310 311 313 316 318 320 323 324 326 326 327 328 329 329 328 327 326 325 323 322 321 321 321 320 319 320 320 322 321 320 319 318 317 317 316 316 317 316 312 309 309
255 256 256 256 256 257 258 259 261 263 265 267 269 271 272 273 273 273 274 275 275 276 278 279 280 281 282 281 281 283 285 287 291 296 302 306 308 310 312 311 310 309 309 309 310 312 314 317 320 322 323 325 326 327 328 329 330 330 329 328 327 326 324 323 321 320 320 319 320 322 322 322 321 319 319 318 317 317 317 317 317 315 312 309 306
255 256 257 257 257 257 258 259 260 262 264 266 268 270 271 272 272 273 273 274 274 275 276 278 279 280 279 279 280 283 285 289 295 301 305 308 310 311 311 310 309 308 308 308 310 312 315 318 320 322 324 325 326 327 329 330 330 330 329 327 326 326 324 323 322 321 321 322 323 323 323 322 321 320 320 318 317 317 318 317 317 314 311 308 305
254 255 255 255 256 257 258 259 261 262 264 266 267 269 271 271 271 271 272 272 272 274 275 277 277 277 276 278 280 283 288 294 300 305 309 310 311 311 311 309 308 307 307 308 310 313 316 318 321 323 324 326 327 328 329 330 330 329 328 327 326 325 324 324 323 324 324 325 325 324 323 323 322 321 320 318 318 319 319 319 318 314 311 308 305
251 252 253 254 255 256 258 260 261 263 265 266 266 268 270 270 270 269 269 270 271 272 273 274 274 274 275 278 282 287 294 301 306 310 311 312 311 311 309 307 306 306 306 308 310 313 316 319 322 324 325 326 327 328 329 330 330 329 328 327 326 325 324 324 325 325 326 325 325 324 324 323 322 321 320 319 320 321 321 320 319 316 312 308 306
251 251 252 254 255 256 258 260 262 263 264 265 266 267 268 268 268 268 268 268 269 270 271 271 272 274 277 282 287 294 301 307 310 312 312 312 311 309 307 304 304 305 306 308 311 314 317 320 322 324 325 326 327 328 328 329 329 328 327 326 325 325 324 325 325 325 325 325 324 324 324 323 323 323 323 322 323 323 323 322 321 318 313 308 305
253 252 253 254 255 256 258 259 261 262 263 263 264 265 266 266 266 266 266 266 267 268 269 270 272 276 281 288 296 303 308 311 312 311 311 310 309 306 303 302 302 304 306 308 311 315 318 321 323 324 325 326 327 327 328 329 329 328 327 326 325 324 324 324 324 324 324 324 324 324 325 325 326 327 327 327 326 326 325 324 323 321 316 310 304
255 254 253 253 254 256 257 258 260 261 261 262 263 263 264 264 264 264 264 264 265 266 268 271 275 282 290 298 304 308 310 311 310 310 310 309 307 304 301 300 301 304 306 309 312 315 318 321 323 324 325 326 327 328 328 329 328 327 326 325 324 323 323 323 323 323 324 324 325 326 327 328 329 330 329 329 328 327 326 325 324 324 321 314 305
256 254 253 253 254 255 257 258 259 259 260 261 262 262 262 262 262 262 262 263 264 267 270 275 282 290 298 304 307 309 309 309 308 309 309 308 305 302 300 300 301 303 306 309 313 316 319 321 323 324 325 326 327 327 328 328 328 326 326 324 323 322 322 322 323 323 324 325 326 327 329 330 331 331 330 329 330 329 327 325 324 325 326 321 311
256 255 254 254 254 255 255 256 257 258 259 260 260 260 260 260 261 262 262 264 266 269 274 281 289 296 301 305 307 307 307 307 308 309 309 306 303 300 298 299 301 303 307 311 314 317 320 321 322 323 324 326 327 327 328 328 327 326 325 324 322 321 321 322 322 323 325 326 327 328 329 330 331 331 331 331 332 332 331 328 326 326 328 327 322
257 256 255 254 253 254 254 255 256 257 258 258 258 258 259 260 261 263 264 266 269 273 280 287 293 299 303 305 305 305 305 307 308 309 308 305 301 298 297 298 300 304 308 312 315 317 320 321 322 323 325 326 327 328 328 328 327 326 325 323 321 320 321 321 322 324 325 326 327 328 329 330 331 332 333 333 335 337 336 334 332 330 331 330 327
257 257 255 253 253 253 253 254 255 255 256 256 256 258 259 261 263 264 266 269 273 279 285 291 296 299 302 303 303 304 306 308 309 308 306 303 300 298 297 299 302 306 310 313 316 318 320 321 322 323 325 327 328 328 328 327 327 325 324 322 320 319 319 320 321 322 323 325 326 328 329 331 332 334 334 337 340 343 342 340 338 336 335 334 331
257 255 254 252 252 252 253 253 254 254 254 255 257 260 262 263 264 265 268 273 277 282 287 292 295 298 301 302 303 304 306 307 308 307 305 302 300 299 299 301 305 308 312 314 317 319 320 321 322 323 325 326 327 328 328 327 326 324 323 321 319 317 317 319 319 320 322 324 326 328 329 331 333 334 336 340 344 347 347 345 342 340 339 337 335
255 254 253 252 252 252 252 253 253 253 255 258 261 263 264 264 265 268 271 275 278 283 288 292 296 299 300 302 303 304 306 307 307 306 304 302 301 300 302 305 308 311 313 316 318 320 320 321 322 324 325 326 327 327 327 327 326 324 322 320 318 316 316 318 319 320 321 323 326 328 330 331 332 335 340 343 347 350 350 348 346 343 340 338 337
255 253 252 252 252 252 252 253 254 257 260 263 264 264 263 265 268 271 274 276 278 284 290 293 297 299 300 301 303 304 306 306 306 305 304 302 301 302 304 307 309 312 315 317 318 320 321 322 322 324 325 326 327 327 327 327 326 324 322 320 318 316 315 316 318 319 320 323 326 327 329 330 332 337 343 346 348 351 351 349 348 346 343 339 336
255 252 251 251 251 252 253 255 258 261 264 264 263 264 265 268 270 271 273 275 281 288 293 294 296 298 299 301 303 304 305 305 305 304 303 302 302 303 305 308 310 313 315 317 319 320 321 322 322 323 325 326 326 327 327 326 326 324 322 320 318 315 314 316 317 319 320 323 325 326 328 330 332 337 343 345 346 349 350 349 350 349 347 343 338
254 252 250 251 252 253 255 258 261 263 263 262 263 265 267 268 269 269 273 280 287 291 292 293 296 298 299 301 302 302 303 304 304 303 303 303 303 304 306 309 311 313 315 317 319 320 321 321 322 323 324 325 326 326 326 326 325 324 322 321 319 316 315 316 317 319 320 322 324 326 328 330 331 334 339 341 342 345 347 349 351 352 351 348 342
256 254 252 252 253 255 257 260 261 261 261 262 264 264 265 265 267 271 279 286 289 289 289 292 295 297 298 300 301 302 302 303 303 303 302 303 303 305 307 310 311 313 315 317 318 320 320 320 321 322 324 324 325 326 326 325 325 324 322 321 319 317 315 316 317 318 320 322 324 325 327 330 330 332 335 337 338 341 345 347 350 353 354 352 347
256 255 254 254 255 256 258 259 260 260 261 262 262 262 264 266 270 276 283 286 285 284 287 291 294 295 297 299 300 300 301 301 301 302 302 303 304 306 308 310 312 313 315 317 318 318 318 319 320 321 323 324 324 325 325 325 325 324 323 322 320 317 316 316 316 318 320 321 323 325 327 329 330 331 333 334 335 338 343 346 348 352 356 356 353
255 256 257 258 259 259 260 260 260 260 260 260 260 262 264 267 272 278 282 281 280 283 287 290 292 294 296 297 298 298 299 299 300 301 302 303 304 306 308 310 311 312 313 315 316 316 317 318 320 321 323 323 323 324 325 325 326 326 324 322 321 318 316 316 317 318 320 321 323 324 326 329 331 332 332 332 334 337 342 345 346 350 355 358 359
256 257 259 260 260 260 261 260 260 259 258 259 261 263 265 269 274 277 278 277 278 282 286 288 290 293 294 295 296 296 297 298 299 300 302 303 304 305 307 308 309 310 312 313 315 316 317 318 320 321 321 322 322 323 324 325 327 327 325 323 322 319 317 317 317 318 319 321 322 322 324 328 331 333 333 334 335 338 341 344 346 348 353 358 2
256 257 258 258 259 259 259 258 258 258 258 259 261 263 265 269 272 273 273 274 276 281 284 286 288 290 291 292 293 293 294 296 298 299 301 302 303 305 306 306 308 309 311 313 314 315 316 318 319 319 320 320 320 321 322 324 326 327 326 324 322 320 318 317 318 318 319 319 320 321 323 327 331 333 335 336 338 340 342 343 345 348 351 356 1
256 257 258 258 258 258 257 257 256 256 256 258 259 261 264 267 269 270 271 273 275 278 281 283 285 286 287 288 289 290 292 295 297 298 300 301 302 304 305 306 307 308 310 312 313 315 316 317 318 318 318 318 318 320 321 322 324 325 326 325 323 320 319 318 318 318 318 319 320 322 323 326 330 333 335 338 341 343 345 344 344 346 350 354 357
256 257 257 258 258 258 257 256 256 256 256 258 260 262 264 265 267 269 270 270 272 274 277 279 280 281 282 284 286 288 290 293 295 297 298 299 301 302 303 304 306 307 310 312 313 314 316 316 316 316 316 317 318 318 320 321 322 323 325 325 323 321 319 318 318 319 319 319 321 321 322 325 328 330 333 337 342 345 347 346 345 345 349 353 354
254 254 256 257 257 257 256 256 257 257 258 259 260 262 263 264 265 267 267 267 267 269 271 274 275 277 279 281 283 285 288 291 293 295 296 297 299 300 301 302 304 307 309 312 313 315 315 315 316 316 315 316 317 317 318 319 320 321 322 323 323 322 320 318 318 319 319 319 320 320 321 323 326 329 332 336 341 346 349 349 347 346 348 353 355
253 254 255 256 257 258 258 258 258 258 258 259 260 261 263 263 263 265 266 264 262 264 267 269 272 274 276 278 279 282 287 290 291 293 294 295 297 298 299 301 304 306 309 312 314 315 315 315 315 315 314 315 315 316 317 318 318 318 319 320 321 321 320 317 317 318 319 320 320 320 320 322 325 329 332 335 340 345 349 351 351 349 349 353 356
256 255 255 255 257 258 258 258 258 258 258 259 260 261 261 262 264 266 266 263 261 262 265 267 270 272 274 275 277 281 285 288 289 291 292 293 295 297 299 301 304 307 310 312 314 315 315 315 314 313 313 314 314 315 315 316 316 316 317 317 317 318 318 317 316 316 317 318 319 319 320 321 324 327 331 334 338 343 347 352 354 352 351 354 358
260 258 257 256 256 257 257 258 258 258 258 258 259 260 261 263 266 268 267 263 261 261 263 265 268 269 271 272 275 280 283 286 287 288 290 292 295 297 299 302 305 308 310 313 314 315 315 314 313 312 312 313 313 314 314 315 315 315 315 314 314 314 315 315 314 314 315 316 318 319 320 321 323 325 328 332 336 340 344 350 354 354 354 356 358
263 262 260 258 257 257 258 258 258 258 258 258 259 261 262 263 266 268 266 262 260 261 262 263 265 267 268 270 274 278 281 283 284 286 289 292 295 297 299 302 305 308 311 313 315 315 315 314 313 312 311 312 313 313 314 314 314 314 313 312 311 311 311 311 312 312 313 315 317 318 319 321 322 323 325 328 333 337 340 344 349 353 355 356 357
264 263 261 259 257 257 257 257 258 258 258 258 259 260 261 264 267 268 265 262 261 261 260 262 263 264 266 269 272 276 278 281 283 285 288 291 294 296 299 302 305 309 312 314 315 315 315 313 312 311 311 311 312 312 313 313 312 312 312 311 310 308 307 307 308 309 310 312 313 315 316 317 318 320 322 324 328 331 334 337 341 346 350 352 353
265 264 262 259 257 255 256 256 257 257 258 258 259 260 262 265 268 268 265 262 261 259 259 260 261 263 265 268 271 274 277 279 282 285 288 291 293 295 297 301 305 309 312 314 315 315 314 313 312 311 311 311 311 312 312 312 311 311 310 309 308 306 304 303 304 305 306 308 310 311 312 313 313 315 317 318 321 324 326 328 332 336 339 342 343
267 266 265 262 259 256 255 256 257 258 259 260 260 261 263 265 268 268 265 262 260 258 258 258 259 261 264 267 269 272 275 278 281 284 287 290 291 293 296 301 305 309 313 315 315 315 315 313 312 311 311 311 311 311 311 311 311 311 310 309 307 305 303 301 300 301 303 304 305 307 308 310 311 312 312 313 314 316 318 320 322 324 327 329 331
266 267 266 264 261 258 256 256 257 259 260 261 261 262 263 265 267 267 264 261 259 257 256 256 258 260 262 265 267 270 273 276 280 284 286 288 290 293 296 300 305 310 313 315 315 315 314 313 312 311 310 310 310 310 310 310 310 310 309 308 307 306 303 300 298 298 299 301 302 303 304 306 307 308 308 309 309 310 312 313 314 314 315 316 318
264 265 265 264 262 259 257 255 256 257 259 260 261 262 263 264 266 265 263 260 258 256 255 254 256 258 261 263 265 268 271 276 280 283 285 287 290 293 296 300 305 309 313 314 315 315 314 312 311 310 309 309 309 309 308 309 309 309 309 308 308 307 305 302 298 297 297 297 298 299 299 300 301 302 303 304 305 306 306 306 306 306 306 305 306
263 263 263 263 262 260 257 256 256 256 257 259 261 262 263 264 265 264 261 259 257 255 253 253 255 257 259 262 264 267 271 275 279 282 284 287 289 292 295 299 304 309 312 314 314 314 312 311 310 309 308 308 308 307 307 307 308 308 309 309 309 309 308 305 301 298 296 295 295 295 295 295 295 296 297 298 299 300 301 300 300 300 298 298 297
Height
3134 3135 3136 3136 3137 3138 3139 3140 3142 3143 3144 3146 3147 3148 3150 3151 3151 3152 3152 3152 3152 3152 3152 3151 3151 3151 3150 3149 3148 3147 3146 3145 3143 3141 3139 3137 3136 3134 3132 3131 3129 3128 3127 3125 3124 3122 3121 3119 3117 3115 3113 3111 3109 3107 3104 3102 3099 3097 3094 3091 3089 3085 3080 3077 3070 3062 3062 3062 3057 3053 3050 3045 3043 3040 3033 3028 3026 3023 3020 3015 3010 3006 3003 2998 2995
3132 3132 3133 3134 3135 3136 3137 3138 3140 3141 3143 3144 3145 3146 3147 3148 3149 3149 3149 3149 3149 3149 3148 3148 3147 3147 3146 3145 3145 3143 3142 3141 3139 3137 3135 3134 3132 3130 3129 3127 3126 3124 3123 3121 3120 3118 3116 3115 3113 3111 3109 3107 3104 3101 3099 3096 3093 3091 3088 3085 3082 3079 3073 3069 3065 3057 3053 3053 3051 3046 3043 3038 3034 3032 3026 3019 3016 3014 3010 3006 3001 2997 2993 2989 2984
3129 3130 3131 3132 3133 3134 3135 3137 3138 3140 3141 3142 3143 3144 3145 3145 3146 3146 3146 3146 3146 3145 3145 3144 3144 3143 3142 3142 3141 3139 3138 3136 3135 3133 3131 3130 3128 3127 3125 3124 3122 3121 3119 3118 3116 3114 3112 3110 3108 3106 3104 3101 3099 3096 3093 3090 3088 3085 3082 3079 3075 3072 3068 3062 3058 3053 3046 3044 3043 3039 3035 3030 3026 3023 3017 3011 3007 3003 3000 2996 2992 2988 2984 2978 2973
3127 3128 3129 3130 3131 3132 3134 3135 3137 3138 3139 3140 3141 3141 3142 3142 3143 3143 3143 3143 3143 3142 3141 3141 3140 3139 3139 3137 3136 3135 3133 3132 3131 3129 3127 3126 3125 3123 3122 3120 3119 3117 3115 3113 3112 3110 3108 3106 3103 3101 3098 3096 3093 3091 3088 3085 3082 3079 3076 3073 3069 3065 3062 3057 3052 3048 3041 3036 3035 3033 3027 3022 3018 3014 3007 3001 2999 2995 2989 2985 2981 2978 2975 2970 2963
3126 3127 3128 3129 3130 3131 3132 3133 3135 3136 3137 3137 3138 3139 3139 3139 3139 3140 3140 3139 3139 3138 3138 3137 3136 3135 3134 3133 3132 3131 3130 3128 3127 3125 3124 3122 3121 3120 3118 3116 3114 3113 3111 3109 3107 3105 3103 3100 3098 3095 3093 3091 3088 3085 3083 3079 3076 3073 3069 3066 3062 3058 3055 3051 3045 3041 3036 3029 3026 3024 3021 3015 3009 3005 2999 2990 2986 2984 2980 2976 2971 2965 2961 2958 2953
3124 3125 3126 3127 3128 3129 3130 3132 3133 3133 3134 3135 3135 3135 3136 3136 3136 3136 3136 3136 3135 3134 3134 3133 3132 3131 3130 3129 3128 3127 3126 3125 3123 3122 3120 3119 3117 3115 3114 3112 3110 3108 3106 3104 3102 3100 3098 3095 3093 3090 3087 3084 3082 3079 3076 3073 3069 3066 3062 3059 3055 3050 3047 3043 3038 3033 3028 3023 3017 3013 3011 3007 3000 2996 2992 2983 2973 2968 2965 2962 2961 2956 2949 2943 2939
3122 3123 3124 3125 3126 3127 3128 3129 3130 3131 3131 3132 3132 3132 3132 3133 3132 3132 3132 3132 3131 3130 3129 3129 3128 3127 3126 3125 3124 3123 3122 3121 3119 3118 3116 3114 3113 3111 3109 3107 3105 3104 3102 3100 3098 3095 3093 3091 3088 3085 3082 3079 3076 3073 3069 3066 3062 3058 3054 3051 3048 3044 3039 3035 3030 3025 3019 3014 3009 3003 2999 2996 2991 2985 2982 2976 2966 2958 2952 2945 2943 2943 2940 2933 2927
3120 3121 3122 3123 3124 3125 3125 3126 3127 3128 3128 3128 3129 3129 3129 3129 3129 3128 3128 3127 3127 3126 3125 3124 3124 3123 3122 3121 3120 3119 3118 3116 3115 3114 3112 3110 3108 3106 3105 3103 3102 3100 3098 3095 3093 3091 3088 3086 3083 3080 3077 3073 3070 3067 3063 3059 3056 3053 3048 3044 3040 3036 3032 3027 3021 3016 3011 3005 3000 2995 2988 2985 2982 2975 2970 2965 2956 2950 2945 2936 2927 2926 2925 2922 2918
3118 3119 3119 3120 3121 3122 3122 3123 3124 3124 3125 3125 3125 3125 3125 3125 3125 3124 3124 3123 3123 3122 3121 3120 3120 3119 3118 3117 3116 3115 3113 3112 3111 3109 3107 3105 3104 3102 3101 3099 3097 3095 3093 3091 3088 3086 3084 3081 3078 3075 3072 3069 3065 3062 3058 3054 3050 3047 3043 3038 3033 3029 3024 3020 3014 3008 3002 2997 2991 2986 2979 2974 2971 2964 2958 2953 2946 2938 2934 2928 2920 2915 2911 2906 2906
3115 3116 3116 3117 3118 3118 3119 3120 3120 3121 3121 3121 3121 3121 3121 3121 3121 3121 3120 3119 3119 3118 3117 3116 3115 3114 3113 3112 3111 3110 3109 3107 3106 3104 3103 3101 3100 3099 3097 3095 3093 3091 3089 3086 3084 3081 3079 3076 3073 3070 3067 3064 3061 3057 3054 3050 3046 3042 3037 3032 3027 3022 3016 3012 3006 2999 2992 2986 2981 2976 2969 2963 2960 2954 2946 2942 2937 2930 2925 2919 2912 2907 2903 2895 2891
3112 3113 3113 3114 3115 3115 3116 3117 3117 3117 3118 3118 3118 3118 3117 3117 3117 3117 3116 3115 3114 3113 3112 3111 3111 3110 3109 3107 3106 3105 3104 3103 3101 3100 3099 3097 3096 3094 3092 3090 3088 3086 3083 3081 3078 3076 3073 3070 3067 3064 3061 3058 3055 3052 3048 3045 3041 3036 3032 3026 3020 3014 3008 3002 2997 2991 2983 2976 2972 2967 2960 2953 2950 2947 2940 2934 2929 2924 2919 2914 2907 2900 2895 2887 2880
3109 3110 3110 3111 3111 3112 3113 3113 3113 3114 3114 3114 3114 3114 3113 3113 3113 3112 3112 3111 3110 3109 3108 3107 3106 3105 3104 3103 3102 3100 3099 3098 3097 3095 3094 3093 3091 3090 3088 3086 3083 3081 3078 3076 3073 3070 3067 3064 3061 3058 3055 3052 3049 3046 3042 3038 3035 3030 3025 3020 3014 3008 3001 2993 2987 2981 2975 2969 2963 2960 2954 2946 2941 2939 2934 2927 2921 2917 2913 2909 2903 2895 2889 2883 2874
3106 3106 3107 3107 3108 3108 3109 3109 3109 3110 3110 3110 3109 3109 3109 3109 3108 3108 3107 3106 3105 3104 3103 3102 3101 3100 3099 3098 3097 3096 3095 3094 3093 3091 3090 3089 3087 3085 3083 3081 3078 3076 3073 3070 3067 3064 3061 3058 3055 3052 3049 3046 3043 3040 3036 3032 3028 3023 3019 3013 3008 3002 2995 2988 2980 2973 2967 2962 2956 2953 2949 2942 2934 2932 2929 2922 2915 2910 2905 2900 2897 2890 2882 2877 2870
3102 3102 3103 3103 3104 3104 3105 3105 3105 3105 3105 3105 3105 3105 3104 3104 3103 3103 3102 3101 3101 3100 3099 3098 3096 3095 3094 3093 3092 3092 3091 3090 3089 3088 3086 3085 3083 3081 3078 3076 3073 3070 3068 3065 3062 3059 3056 3053 3050 3046 3043 3040 3037 3033 3030 3025 3021 3016 3012 3007 3001 2996 2989 2982 2975 2969 2963 2957 2950 2945 2943 2937 2930 2926 2923 2918 2910 2903 2897 2890 2886 2881 2875 2870 2865
3097 3098 3099 3099 3100 3100 3101 3101 3101 3101 3101 3101 3100 3100 3100 3099 3098 3098 3097 3097 3096 3095 3094 3093 3091 3090 3090 3089 3088 3087 3087 3086 3084 3083 3082 3080 3078 3076 3073 3071 3068 3065 3063 3060 3057 3054 3051 3048 3045 3041 3037 3033 3030 3026 3022 3019 3015 3010 3006 3001 2995 2990 2983 2975 2969 2963 2958 2953 2946 2940 2936 2932 2926 2921 2916 2911 2905 2898 2891 2884 2879 2874 2867 2862 2859
3093 3093 3094 3095 3095 3096 3096 3096 3097 3096 3096 3096 3096 3095 3095 3094 3093 3093 3092 3092 3091 3090 3089 3088 3086 3086 3085 3085 3084 3083 3082 3081 3080 3079 3077 3075 3073 3070 3068 3065 3063 3060 3058 3055 3052 3049 3046 3043 3040 3036 3032 3027 3023 3020 3016 3012 3008 3003 2999 2995 2989 2984 2978 2971 2964 2958 2953 2948 2943 2938 2933 2928 2922 2917 2912 2906 2899 2892 2885 2879 2875 2869 2862 2855 2851
3087 3088 3089 3090 3091 3091 3092 3092 3092 3092 3091 3091 3091 3090 3090 3089 3089 3088 3087 3087 3086 3085 3084 3083 3082 3081 3080 3080 3079 3078 3077 3076 3075 3074 3072 3070 3068 3065 3063 3060 3058 3055 3053 3050 3047 3044 3041 3038 3035 3031 3028 3023 3017 3013 3009 3005 3001 2995 2990 2986 2982 2977 2972 2966 2960 2955 2949 2944 2939 2934 2929 2924 2918 2913 2908 2903 2895 2887 2878 2871 2868 2863 2856 2850 2844
3082 3083 3085 3085 3086 3086 3087 3087 3087 3087 3086 3086 3086 3086 3085 3084 3084 3083 3083 3082 3081 3080 3079 3078 3077 3076 3076 3075 3074 3074 3073 3071 3070 3068 3066 3064 3062 3060 3058 3055 3053 3050 3047 3044 3042 3039 3036 3033 3030 3026 3023 3019 3013 3008 3002 2997 2992 2987 2981 2976 2972 2967 2963 2958 2953 2950 2946 2941 2936 2930 2924 2919 2913 2908 2903 2898 2891 2884 2875 2866 2862 2857 2851 2845 2840
3077 3079 3080 3080 3081 3081 3081 3082 3081 3081 3081 3081 3081 3080 3080 3080 3079 3078 3078 3077 3076 3075 3074 3073 3073 3072 3071 3070 3070 3069 3068 3066 3064 3063 3061 3059 3057 3055 3052 3050 3047 3045 3042 3039 3037 3035 3032 3029 3026 3022 3018 3014 3009 3003 2997 2990 2985 2979 2973 2967 2962 2958 2954 2949 2944 2940 2937 2933 2929 2925 2920 2915 2909 2902 2897 2892 2886 2880 2872 2864 2858 2852 2846 2841 2837
3072 3073 3074 3074 3075 3075 3076 3076 3076 3076 3076 3076 3076 3075 3075 3074 3074 3073 3072 3071 3070 3070 3069 3068 3068 3067 3066 3065 3065 3064 3062 3061 3059 3057 3055 3053 3052 3050 3047 3045 3042 3039 3037 3034 3032 3030 3028 3024 3021 3018 3014 3009 3004 2998 2992 2985 2978 2972 2966 2959 2953 2949 2945 2942 2938 2933 2929 2925 2922 2918 2913 2909 2904 2898 2893 2887 2882 2876 2869 2862 2855 2848 2842 2836 2833
3067 3067 3068 3069 3070 3070 3071 3071 3071 3071 3071 3071 3070 3070 3070 3069 3068 3067 3067 3066 3065 3065 3064 3063 3062 3061 3061 3060 3059 3058 3057 3055 3053 3052 3050 3048 3046 3044 3042 3039 3037 3034 3032 3029 3027 3024 3022 3019 3015 3012 3007 3003 2998 2992 2987 2981 2974 2967 2960 2954 2948 2943 2939 2935 2932 2928 2924 2920 2916 2912 2908 2903 2899 2894 2889 2883 2876 2870 2864 2858 2851 2844 2839 2833 2828
3061 3062 3062 3064 3065 3065 3065 3066 3066 3066 3066 3065 3065 3064 3064 3063 3063 3062 3061 3061 3060 3060 3059 3058 3057 3056 3055 3054 3053 3052 3051 3049 3048 3046 3045 3043 3041 3039 3037 3034 3032 3029 3027 3024 3022 3019 3017 3013 3010 3006 3001 2997 2992 2986 2981 2976 2970 2962 2956 2950 2944 2939 2934 2930 2926 2923 2919 2915 2911 2907 2903 2898 2893 2888 2883 2877 2871 2864 2858 2852 2846 2839 2834 2830 2825
3055 3056 3057 3058 3059 3059 3060 3060 3060 3060 3060 3060 3059 3059 3058 3058 3057 3057 3056 3056 3055 3055 3053 3052 3052 3051 3050 3049 3047 3046 3045 3044 3043 3041 3040 3038 3036 3034 3032 3029 3027 3025 3022 3020 3017 3014 3011 3007 3004 3000 2996 2992 2987 2981 2976 2970 2964 2958 2951 2946 2941 2936 2931 2927 2923 2919 2915 2911 2907 2902 2898 2892 2886 2881 2876 2870 2864 2858 2852 2846 2841 2834 2829 2825 2821
3050 3051 3051 3052 3053 3053 3054 3054 3055 3055 3054 3054 3054 3053 3053 3053 3052 3051 3051 3051 3050 3049 3048 3047 3046 3045 3044 3043 3042 3041 3040 3039 3038 3037 3035 3033 3031 3029 3027 3025 3022 3020 3017 3015 3012 3009 3006 3002 2998 2994 2991 2986 2981 2976 2970 2964 2958 2952 2947 2942 2937 2933 2928 2923 2919 2915 2911 2907 2902 2898 2893 2888 2882 2876 2870 2864 2858 2852 2847 2841 2835 2830 2824 2819 2815
3045 3045 3046 3046 3047 3047 3048 3048 3049 3049 3049 3049 3048 3048 3048 3047 3047 3046 3046 3045 3045 3044 3043 3042 3041 3040 3038 3037 3037 3036 3036 3035 3033 3032 3030 3028 3026 3024 3022 3020 3018 3015 3013 3010 3007 3004 3000 2997 2994 2990 2985 2981 2977 2971 2966 2960 2954 2948 2942 2938 2933 2928 2923 2919 2915 2911 2906 2902 2897 2893 2889 2884 2879 2872 2866 2860 2855 2848 2842 2835 2830 2825 2819 2814 2809
3039 3039 3040 3040 3041 3041 3042 3043 3043 3043 3043 3043 3043 3042 3042 3042 3041 3041 3040 3040 3040 3039 3038 3037 3036 3035 3034 3033 3032 3032 3031 3030 3029 3027 3025 3023 3021 3019 3017 3015 3013 3011 3008 3005 3002 2999 2995 2992 2989 2985 2980 2976 2971 2966 2960 2955 2949 2943 2938 2933 2929 2924 2919 2914 2910 2906 2902 2898 2894 2889 2885 2880 2875 2870 2864 2857 2852 2845 2838 2830 2824 2819 2814 2809 2803
3033 3034 3034 3034 3035 3036 3036 3037 3037 3038 3038 3037 3037 3037 3036 3036 3036 3036 3035 3035 3034 3034 3033 3032 3031 3030 3030 3029 3028 3028 3027 3025 3023 3021 3020 3018 3016 3015 3013 3011 3009 3006 3003 3000 2997 2994 2990 2987 2983 2980 2975 2970 2965 2959 2953 2948 2944 2939 2934 2929 2925 2920 2915 2910 2906 2901 2897 2894 2890 2886 2882 2877 2872 2866 2860 2854 2848 2842 2835 2828 2821 2815 2810 2805 2800
3028 3028 3029 3029 3030 3030 3031 3032 3032 3032 3032 3032 3031 3031 3031 3031 3031 3031 3031 3030 3029 3028 3028 3027 3027 3026 3026 3025 3024 3022 3021 3019 3017 3016 3014 3012 3011 3009 3007 3005 3003 3000 2998 2994 2991 2988 2985 2982 2978 2974 2969 2965 2960 2955 2949 2943 2938 2934 2930 2926 2921 2917 2913 2908 2904 2900 2895 2890 2886 2882 2878 2874 2868 2863 2857 2851 2845 2838 2832 2826 2819 2813 2808 2803 2799
3022 3023 3023 3024 3025 3025 3026 3026 3026 3026 3026 3026 3026 3026 3026 3026 3026 3026 3025 3025 3024 3024 3023 3023 3023 3022 3021 3020 3019 3017 3015 3014 3012 3010 3008 3007 3005 3003 3001 2999 2996 2994 2991 2988 2985 2982 2979 2976 2972 2968 2963 2959 2954 2950 2945 2940 2935 2930 2925 2922 2918 2914 2910 2905 2902 2898 2893 2888 2884 2879 2874 2869 2865 2860 2854 2848 2842 2836 2829 2823 2817 2811 2806 2801 2797
3017 3017 3018 3019 3020 3020 3021 3021 3021 3020 3020 3020 3021 3021 3021 3021 3021 3020 3020 3020 3019 3019 3019 3018 3018 3017 3016 3015 3013 3011 3010 3008 3007 3005 3003 3001 2999 2997 2995 2992 2990 2987 2984 2981 2979 2976 2973 2969 2965 2961 2957 2952 2948 2944 2939 2935 2931 2927 2923 2918 2914 2910 2906 2902 2898 2894 2890 2885 2881 2876 2871 2866 2861 2856 2851 2845 2839 2833 2827 2821 2815 2809 2804 2799 2795
3012 3012 3013 3014 3015 3015 3015 3015 3015 3015 3015 3016 3016 3016 3016 3016 3016 3015 3015 3015 3015 3014 3014 3013 3013 3011 3010 3009 3007 3006 3004 3002 3001 2999 2997 2995 2993 2991 2988 2986 2984 2981 2979 2976 2973 2970 2967 2963 2959 2955 2951 2946 2941 2937 2933 2929 2925 2922 2919 2916 2911 2907 2903 2899 2895 2891 2887 2883 2878 2873 2869 2864 2858 2853 2848 2842 2837 2831 2826 2820 2813 2807 2802 2798 2793
3007 3008 3009 3009 3010 3010 3010 3010 3010 3011 3011 3011 3011 3011 3011 3011 3010 3011 3011 3011 3010 3009 3008 3008 3007 3006 3005 3003 3001 3000 2998 2997 2995 2993 2991 2989 2987 2985 2983 2980 2978 2975 2972 2970 2967 2964 2960 2957 2953 2949 2945 2940 2936 2931 2927 2923 2920 2916 2913 2911 2908 2904 2899 2895 2891 2887 2883 2879 2876 2871 2867 2862 2856 2851 2846 2841 2836 2830 2825 2819 2812 2806 2801 2797 2793
3002 3003 3004 3004 3005 3005 3005 3005 3006 3006 3006 3006 3006 3006 3006 3006 3006 3006 3006 3005 3004 3004 3003 3003 3002 3001 2999 2998 2996 2994 2992 2991 2989 2987 2986 2984 2982 2979 2977 2975 2973 2970 2967 2964 2961 2958 2955 2952 2948 2944 2939 2935 2930 2926 2922 2918 2915 2912 2909 2906 2903 2900 2896 2892 2888 2884 2880 2876 2873 2869 2864 2860 2855 2850 2846 2841 2835 2830 2825 2819 2812 2806 2801 2796 2792
2998 2999 2999 3000 3000 3000 3001 3001 3001 3001 3001 3001 3001 3001 3001 3001 3001 3001 3000 3000 2999 2999 2998 2997 2996 2995 2994 2992 2990 2989 2987 2985 2983 2982 2980 2978 2976 2974 2972 2969 2967 2965 2962 2959 2956 2953 2950 2947 2943 2939 2935 2931 2926 2922 2918 2915 2911 2908 2905 2902 2899 2895 2892 2889 2885 2881 2877 2873 2869 2866 2862 2858 2853 2848 2844 2840 2835 2830 2825 2819 2813 2807 2801 2795 2791
2993 2994 2994 2995 2995 2996 2996 2997 2997 2996 2996 2996 2996 2996 2996 2996 2996 2995 2995 2994 2994 2993 2993 2992 2991 2989 2988 2986 2984 2983 2981 2979 2978 2976 2975 2973 2971 2969 2967 2964 2961 2959 2956 2953 2950 2948 2945 2943 2939 2935 2931 2927 2922 2918 2915 2911 2908 2904 2901 2898 2895 2892 2888 2885 2882 2878 2874 2871 2867 2863 2859 2855 2851 2847 2843 2839 2834 2829 2824 2819 2813 2807 2801 2795 2790
2988 2989 2989 2990 2991 2991 2991 2992 2991 2991 2991 2991 2991 2991 2991 2991 2990 2990 2989 2989 2989 2988 2987 2986 2985 2983 2982 2980 2979 2977 2975 2974 2972 2970 2969 2968 2966 2964 2962 2959 2957 2954 2952 2949 2946 2943 2940 2937 2934 2930 2926 2922 2918 2915 2911 2908 2904 2901 2897 2894 2891 2888 2885 2881 2878 2875 2871 2868 2864 2860 2857 2853 2850 2845 2841 2837 2833 2829 2824 2820 2814 2809 2803 2797 2791
2983 2984 2984 2985 2986 2986 2986 2986 2986 2986 2986 2986 2986 2985 2985 2985 2984 2984 2984 2983 2983 2982 2981 2980 2979 2978 2976 2975 2973 2971 2969 2968 2966 2965 2963 2962 2960 2959 2957 2955 2953 2950 2947 2945 2941 2938 2935 2932 2928 2924 2921 2918 2914 2911 2908 2904 2901 2898 2894 2891 2887 2884 2881 2878 2875 2871 2868 2865 2862 2858 2855 2852 2848 2844 2840 2836 2832 2828 2824 2820 2815 2810 2805 2799 2794
2978 2978 2979 2980 2980 2980 2980 2980 2980 2980 2980 2980 2979 2979 2979 2979 2978 2978 2977 2976 2976 2975 2975 2974 2973 2972 2970 2969 2968 2966 2964 2962 2961 2960 2958 2957 2955 2954 2952 2950 2948 2946 2943 2940 2937 2933 2930 2926 2923 2920 2917 2914 2911 2907 2904 2901 2897 2894 2891 2888 2884 2881 2878 2875 2872 2869 2865 2862 2859 2856 2853 2850 2847 2843 2839 2835 2831 2828 2824 2820 2816 2811 2807 2802 2797
2972 2973 2973 2974 2974 2974 2974 2974 2974 2974 2974 2973 2973 2973 2973 2972 2972 2972 2971 2970 2969 2969 2968 2968 2967 2966 2965 2963 2962 2960 2959 2957 2956 2954 2953 2952 2950 2949 2947 2945 2943 2941 2938 2935 2932 2928 2925 2921 2918 2915 2912 2909 2906 2903 2900 2897 2894 2891 2888 2885 2882 2878 2875 2872 2869 2866 2863 2860 2857 2854 2851 2848 2845 2842 2838 2834 2831 2827 2823 2819 2816 2812 2808 2804 2800
2966 2967 2967 2967 2967 2968 2968 2967 2967 2967 2968 2967 2967 2967 2967 2966 2966 2965 2964 2963 2963 2962 2962 2962 2961 2960 2959 2958 2957 2955 2953 2952 2950 2949 2948 2947 2945 2944 2942 2940 2938 2936 2933 2930 2926 2923 2920 2916 2913 2910 2907 2904 2901 2899 2896 2893 2890 2887 2885 2882 2879 2875 2872 2869 2866 2863 2860 2857 2854 2851 2849 2846 2843 2841 2838 2834 2830 2827 2823 2819 2816 2813 2809 2806 2802
2960 2960 2960 2961 2961 2961 2961 2961 2961 2961 2961 2961 2961 2960 2960 2960 2959 2958 2958 2957 2957 2957 2956 2955 2955 2954 2954 2953 2951 2950 2948 2947 2946 2944 2943 2942 2940 2939 2937 2935 2933 2930 2928 2925 2921 2918 2914 2911 2908 2905 2902 2899 2897 2894 2891 2889 2886 2884 2881 2878 2875 2872 2869 2866 2863 2860 2858 2855 2852 2849 2847 2844 2842 2839 2836 2833 2830 2826 2823 2819 2816 2813 2810 2808 2805
2953 2953 2953 2954 2954 2954 2954 2955 2955 2955 2954 2954 2954 2954 2953 2953 2952 2952 2951 2950 2950 2950 2950 2950 2949 2949 2948 2948 2946 2945 2943 2942 2941 2940 2938 2936 2935 2933 2931 2929 2927 2925 2922 2920 2916 2913 2909 2906 2903 2900 2897 2895 2892 2890 2887 2885 2882 2880 2877 2875 2872 2869 2866 2863 2860 2858 2855 2853 2850 2847 2845 2842 2840 2837 2835 2832 2829 2826 2823 2819 2816 2813 2811 2808 2806
2945 2945 2946 2946 2947 2947 2948 2948 2948 2947 2947 2947 2947 2947 2946 2946 2945 2945 2944 2943 2943 2943 2944 2944 2943 2943 2942 2942 2941 2939 2937 2936 2935 2934 2932 2930 2929 2927 2925 2923 2921 2919 2917 2914 2911 2908 2904 2901 2898 2895 2893 2890 2888 2885 2883 2881 2878 2876 2874 2871 2869 2866 2863 2860 2858 2855 2853 2850 2848 2845 2843 2840 2838 2836 2833 2831 2828 2825 2822 2819 2817 2814 2811 2809 2806
2937 2938 2938 2938 2939 2940 2940 2940 2940 2940 2940 2940 2940 2939 2939 2939 2939 2938 2937 2936 2936 2936 2936 2936 2936 2936 2936 2936 2935 2933 2932 2931 2930 2928 2926 2924 2922 2921 2919 2917 2915 2913 2911 2908 2906 2903 2900 2897 2894 2891 2888 2886 2883 2880 2878 2876 2874 2872 2869 2867 2865 2863 2860 2857 2855 2852 2850 2848 2845 2843 2841 2838 2836 2834 2832 2829 2827 2825 2822 2819 2817 2814 2812 2809 2807
2929 2930 2930 2931 2931 2932 2932 2933 2933 2932 2932 2932 2932 2932 2932 2932 2932 2931 2930 2929 2928 2928 2928 2928 2929 2929 2929 2929 2928 2927 2926 2925 2924 2923 2920 2918 2916 2915 2913 2912 2910 2908 2905 2902 2900 2897 2895 2892 2889 2886 2884 2881 2878 2876 2873 2871 2869 2867 2865 2863 2861 2859 2856 2854 2851 2849 2846 2844 2842 2840 2838 2836 2834 2832 2830 2828 2826 2824 2821 2819 2817 2815 2812 2810 2808
2921 2921 2922 2922 2923 2924 2924 2925 2925 2924 2924 2925 2925 2925 2925 2925 2925 2924 2923 2922 2921 2921 2921 2921 2922 2922 2922 2922 2922 2921 2920 2919 2918 2917 2915 2912 2910 2909 2908 2906 2904 2902 2899 2897 2894 2892 2889 2887 2885 2882 2879 2877 2874 2871 2869 2867 2864 2862 2860 2858 2857 2854 2852 2850 2848 2845 2843 2840 2839 2837 2835 2834 2832 2830 2828 2826 2824 2822 2820 2818 2816 2814 2813 2811 2809
2912 2913 2913 2913 2914 2915 2916 2916 2916 2916 2916 2917 2917 2918 2918 2918 2917 2917 2916 2915 2914 2914 2914 2914 2915 2915 2915 2915 2915 2915 2914 2914 2913 2911 2909 2906 2905 2904 2902 2900 2898 2896 2894 2891 2889 2887 2884 2882 2880 2877 2875 2872 2870 2867 2865 2862 2860 2858 2856 2854 2852 2850 2848 2846 2844 2842 2840 2837 2835 2834 2832 2831 2829 2828 2826 2824 2822 2821 2819 2817 2816 2814 2812 2811 2809
2904 2904 2904 2905 2906 2906 2907 2907 2907 2908 2909 2909 2910 2910 2910 2910 2910 2909 2908 2908 2907 2907 2907 2908 2908 2908 2909 2909 2908 2909 2908 2908 2906 2905 2902 2901 2899 2898 2896 2894 2893 2890 2888 2885 2883 2881 2879 2877 2875 2872 2870 2868 2866 2863 2861 2858 2856 2854 2852 2850 2848 2846 2844 2842 2840 2838 2836 2834 2832 2830 2829 2827 2826 2825 2823 2822 2821 2819 2817 2816 2814 2813 2811 2810 2808
2896 2896 2896 2896 2897 2898 2899 2899 2899 2900 2901 2902 2902 2902 2902 2902 2902 2902 2901 2900 2900 2900 2901 2901 2902 2902 2902 2901 2902 2902 2902 2901 2900 2898 2896 2895 2894 2892 2890 2888 2887 2884 2882 2879 2877 2875 2874 2872 2870 2868 2865 2863 2861 2859 2857 2854 2852 2850 2848 2846 2844 2842 2840 2838 2836 2834 2832 2831 2829 2827 2826 2824 2823 2822 2821 2820 2818 2817 2815 2814 2813 2811 2810 2809 2807
2887 2887 2888 2888 2888 2889 2890 2891 2891 2892 2893 2893 2894 2894 2894 2894 2894 2894 2893 2893 2893 2893 2894 2894 2894 2895 2895 2894 2895 2895 2895 2894 2893 2892 2890 2889 2887 2886 2884 2883 2881 2878 2876 2874 2871 2870 2868 2866 2864 2863 2861 2859 2857 2855 2853 2850 2848 2846 2844 2842 2840 2838 2836 2834 2832 2830 2828 2827 2826 2824 2823 2821 2820 2819 2818 2817 2815 2814 2813 2812 2811 2809 2808 2807 2806
2878 2878 2879 2879 2880 2881 2881 2882 2883 2884 2884 2885 2885 2886 2886 2886 2886 2886 2885 2885 2885 2886 2886 2887 2887 2887 2888 2888 2888 2889 2888 2888 2887 2885 2884 2883 2881 2879 2878 2877 2875 2873 2870 2868 2866 2865 2863 2861 2859 2858 2856 2854 2852 2850 2848 2846 2844 2842 2840 2838 2836 2834 2832 2831 2829 2827 2825 2823 2822 2821 2819 2818 2817 2816 2815 2814 2812 2811 2810 2809 2808 2807 2806 2805 2804